Dewpoint
50 40 44 38 28 23 20 18 20 17 16 20 19 18 18 20 14 16 29 26 24 24 30 39 45 48 49 50 50 51 51 51 51 52 52 52 53 53 53 54 54 55 56 57 59 60 62 65 67
40 44 37 35 24 16 12 19 18 18 19 20 19 20 18 16 23 23 24 24 22 22 31 37 44 47 48 48 49 49 50 50 50 50 50 50 51 51 51 52 53 53 54 54 55 57 59 61 64
41 32 34 30 24 13 15 19 19 17 20 19 17 19 19 19 24 22 23 23 21 22 29 38 42 44 46 46 46 47 48 48 48 49 48 48 49 50 50 50 51 51 52 52 53 54 55 58 61
43 32 25 20 17 21 17 18 16 14 13 15 16 10 20 25 24 23 23 21 19 17 25 38 39 41 42 43 43 44 45 46 46 47 47 46 47 47 48 48 48 49 50 50 51 52 53 54 57
38 32 22 18 15 15 16 18 14 11 9 6 7 6 15 23 25 23 21 19 16 15 20 30 36 37 38 39 41 42 43 44 44 45 45 45 44 45 45 45 46 47 47 49 49 50 51 52 53
35 32 20 15 11 13 15 17 13 12 12 4 -0 9 14 23 25 23 20 18 16 15 20 25 34 35 35 36 39 40 41 42 42 42 43 42 41 42 42 42 44 45 45 46 47 48 49 49 50
30 29 21 19 13 13 14 15 13 12 10 3 1 2 12 21 25 23 20 17 17 17 20 23 25 26 29 34 37 38 39 39 39 39 40 39 39 40 40 40 42 43 43 44 45 46 47 47 47
33 32 22 20 12 11 13 11 6 8 5 1 2 2 7 21 25 22 21 20 20 21 20 23 25 27 28 28 31 36 36 36 36 36 37 36 33 37 37 37 39 40 41 41 43 44 45 44 44
29 25 20 18 15 12 10 8 3 5 2 1 1 2 16 24 23 22 23 24 24 24 23 24 24 25 27 28 27 32 31 33 32 30 33 30 29 30 29 34 38 38 39 39 41 42 42 40 37
30 25 18 17 15 15 10 8 5 3 3 3 4 11 22 24 24 24 22 22 23 24 26 25 26 26 27 23 26 30 29 30 30 30 30 31 28 30 30 31 34 35 35 35 38 39 38 34 32
21 23 17 14 12 15 11 7 7 5 8 5 4 8 21 24 26 25 23 21 22 23 26 26 27 27 28 27 28 29 30 30 30 30 30 31 27 29 29 29 29 30 30 27 28 29 30 33 34
16 15 17 16 11 12 12 9 7 9 7 6 9 9 21 22 26 27 26 25 25 27 27 30 30 30 30 29 28 28 29 30 30 30 30 30 30 30 29 28 28 28 27 28 28 30 31 32 34
13 13 12 11 12 9 8 8 5 7 8 7 9 15 19 21 23 27 27 29 28 27 28 30 31 32 30 31 29 29 29 30 30 30 30 30 30 30 30 29 28 28 26 25 27 29 30 31 32
14 14 12 11 14 14 12 13 12 13 11 8 11 14 16 20 20 24 27 26 27 26 28 29 30 32 31 31 31 30 30 31 31 32 31 31 31 31 31 30 29 27 25 25 27 29 29 30 31
17 18 15 16 17 14 16 21 17 16 8 10 11 13 18 20 20 20 21 23 22 25 26 28 29 30 31 30 32 32 32 31 32 32 31 30 32 31 31 30 29 27 26 25 25 26 28 29 29
18 20 21 17 19 16 20 24 16 10 7 10 10 11 17 16 15 16 19 21 23 25 25 25 23 28 29 30 31 30 30 31 32 31 31 31 32 32 31 29 28 28 25 24 24 24 26 27 29
21 22 20 21 17 18 18 22 19 12 7 8 7 7 11 11 12 12 15 20 23 24 22 24 25 24 26 28 29 29 30 30 31 32 32 31 33 32 30 29 28 27 24 23 23 23 25 26 27
21 23 21 21 19 17 19 20 21 16 10 9 7 5 8 10 9 9 13 18 21 22 23 24 26 28 28 30 30 29 28 30 31 32 32 32 33 31 30 29 25 23 24 23 23 23 24 26 28
16 20 22 21 16 19 24 23 23 23 21 19 17 15 16 11 10 11 14 17 20 22 24 28 33 33 33 32 31 29 27 30 30 32 31 29 30 30 29 26 24 23 23 23 22 24 25 26 28
20 23 27 22 18 18 22 20 21 21 19 18 18 17 17 13 10 9 13 17 18 21 32 33 32 32 33 33 32 31 30 29 31 33 32 30 28 28 23 24 24 23 23 23 22 24 26 27 28
25 24 21 21 19 19 20 26 17 13 6 12 15 16 14 13 7 6 10 14 21 29 33 33 33 33 33 33 33 33 32 33 31 31 31 30 27 26 26 25 23 23 23 23 24 25 27 27 28
27 14 14 19 24 30 20 30 21 14 5 9 14 11 10 10 5 8 10 13 23 33 36 35 34 33 32 34 33 32 31 29 30 30 29 27 24 24 26 26 23 23 23 23 24 22 26 27 27
24 16 19 17 22 23 23 29 25 14 7 8 13 12 12 12 11 12 11 22 31 34 36 36 34 33 34 34 32 32 31 30 30 28 27 26 26 24 24 24 23 23 23 23 23 24 24 26 26
17 22 17 19 22 31 22 23 25 17 9 5 8 12 15 15 16 13 22 30 33 36 36 36 34 33 32 34 31 29 30 28 27 27 27 27 24 24 24 23 23 23 23 22 23 24 25 26 26
26 31 35 34 34 30 18 20 31 21 12 5 8 10 13 16 18 24 29 31 33 35 35 34 32 32 31 32 30 26 25 25 26 27 25 23 23 24 22 21 21 21 23 23 24 24 24 25 25
23 30 32 26 23 20 16 29 29 16 10 6 9 16 24 25 28 29 30 32 33 33 33 32 32 31 32 31 31 26 26 26 26 25 22 23 23 21 19 19 21 21 22 22 23 23 24 24 25
25 29 20 27 15 21 21 23 22 15 9 9 19 24 26 26 28 28 30 31 31 31 31 32 32 31 31 31 31 30 27 26 24 22 22 22 21 16 16 18 19 20 21 21 22 22 22 23 25
27 22 28 29 25 22 20 25 24 22 11 12 19 23 25 26 26 27 28 29 30 31 32 33 31 31 30 30 30 27 26 24 22 21 21 22 17 16 17 18 19 19 20 21 21 22 23 23 25
23 29 24 26 24 26 23 25 38 32 26 26 19 24 26 26 26 26 26 27 28 31 32 30 31 30 30 29 29 27 26 23 22 21 22 19 17 16 16 17 18 19 20 20 20 21 22 23 24
22 33 34 28 28 26 26 26 28 35 34 33 35 35 29 31 28 26 26 26 27 29 30 28 30 28 28 28 28 27 24 22 21 21 22 19 16 17 16 17 18 18 19 20 20 21 21 21 22
Lifted_Index
10 10 9 7 5 4 3 4 5 5 7 8 9 8 8 8 8 9 13 16 18 19 19 17 15 14 13 13 13 13 13 12 12 12 12 11 10 10 10 9 9 8 8 7 6 4 2 1 1
10 10 8 6 4 3 3 4 5 6 7 8 9 9 8 8 10 12 14 17 19 20 19 17 15 14 14 14 14 14 13 13 13 13 12 12 11 11 10 10 10 9 9 8 7 6 3 2 1
10 9 7 5 3 3 3 4 5 6 8 8 9 9 9 10 12 15 17 19 20 21 20 18 16 16 15 15 15 15 15 14 14 14 14 14 13 13 12 11 11 11 10 10 9 8 6 3 1
9 8 6 4 3 3 4 5 6 6 7 8 8 9 10 12 14 16 18 19 20 21 20 19 17 17 16 16 16 16 16 16 16 15 15 15 15 15 14 14 13 12 12 11 10 10 8 5 2
8 7 5 3 3 4 5 6 6 6 7 8 8 8 10 13 16 17 19 20 20 21 21 20 19 18 18 18 17 17 17 17 17 17 17 17 17 16 16 16 15 14 13 13 12 11 10 8 6
7 6 4 3 3 4 5 6 6 6 7 8 8 8 10 13 16 17 19 20 20 21 21 21 20 20 20 19 19 18 18 18 18 18 18 19 19 18 18 18 17 16 15 15 14 13 13 12 11
6 5 4 3 3 4 5 6 7 7 7 8 9 8 10 13 16 17 19 19 20 21 21 21 21 21 21 20 20 19 19 19 20 20 20 20 20 20 19 19 18 18 17 17 16 15 14 14 14
6 5 4 3 3 4 5 6 7 7 8 9 9 9 10 13 16 17 18 19 20 20 21 21 21 21 21 21 21 21 20 21 21 21 21 21 21 21 20 20 19 19 18 18 17 16 15 15 15
7 5 4 4 4 4 5 6 7 8 8 9 10 10 12 14 15 16 16 17 18 19 20 20 21 21 21 21 21 21 21 21 22 22 22 21 21 21 20 20 19 19 18 18 17 17 16 16 16
6 5 4 5 5 6 6 6 7 8 7 8 9 11 13 14 15 15 15 15 16 17 19 20 20 21 21 21 21 21 21 21 21 21 21 21 20 20 20 19 19 18 18 17 17 17 17 16 16
6 6 6 6 7 7 6 7 7 7 7 8 9 11 13 13 14 14 14 14 14 16 17 18 19 19 19 19 19 20 20 20 20 20 20 20 19 19 19 19 18 18 17 17 17 17 17 16 16
6 7 7 7 8 7 7 7 7 7 8 9 10 11 13 13 13 13 13 13 13 14 15 16 17 17 17 17 18 18 18 18 19 19 19 19 18 18 18 18 18 18 17 16 16 16 16 17 16
7 7 8 8 8 8 8 7 7 8 9 10 11 12 13 13 13 13 12 12 13 13 14 15 15 16 16 16 16 17 17 17 17 18 18 18 17 17 17 17 18 18 18 17 16 16 16 16 16
8 7 8 8 8 8 8 7 7 8 9 9 10 11 13 13 13 12 12 12 13 14 14 15 15 15 16 16 17 17 17 17 17 17 17 18 17 17 16 16 17 17 18 17 16 16 15 15 16
7 7 7 7 8 8 7 6 6 7 8 8 9 11 13 13 13 12 12 13 13 14 14 15 15 16 16 17 17 18 18 18 17 17 17 17 17 17 16 16 16 16 17 17 16 16 15 15 15
6 6 5 6 7 7 6 5 6 7 8 8 9 11 13 13 13 12 12 13 14 14 14 14 15 15 16 16 17 17 18 18 18 18 17 17 17 16 16 15 15 16 16 16 16 15 15 14 14
5 4 5 5 6 6 6 5 6 7 7 8 9 10 12 13 13 13 13 14 14 14 14 14 14 15 15 15 16 17 17 18 18 18 17 17 16 16 15 15 15 15 15 15 15 15 14 14 13
5 4 4 5 6 6 6 5 6 7 7 7 8 10 11 13 14 13 14 14 14 14 14 14 14 14 14 15 16 16 17 17 17 18 17 17 16 16 15 15 15 15 15 15 15 15 14 14 14
5 5 5 5 6 6 6 5 6 7 7 7 8 9 11 13 14 14 15 15 15 15 15 14 14 14 14 15 16 16 17 17 17 17 17 17 16 16 15 15 15 15 14 15 15 15 14 14 15
6 5 5 6 6 6 5 5 6 6 7 7 8 9 10 12 14 15 16 16 15 15 15 14 14 14 15 16 16 16 16 16 16 16 16 16 16 16 15 15 15 15 14 15 15 14 13 14 15
5 5 5 6 6 6 5 4 5 6 7 8 9 9 10 12 14 15 16 16 16 15 15 14 14 14 15 16 16 16 16 16 16 16 16 16 16 16 15 15 15 15 15 15 15 15 14 14 15
5 5 5 5 5 5 4 4 4 6 6 7 8 9 10 12 14 15 16 16 16 15 15 15 14 14 16 16 16 16 16 16 16 16 16 16 16 16 16 16 16 16 16 16 16 17 16 16 15
5 5 5 5 4 4 4 4 4 5 6 7 8 8 10 12 14 15 16 16 15 15 15 14 14 15 16 17 16 16 16 16 16 16 16 16 16 16 16 16 16 16 16 17 18 18 18 18 17
5 5 5 4 3 3 3 4 4 5 6 6 7 9 10 12 14 15 15 15 15 14 14 14 15 16 16 17 16 16 16 15 15 15 15 16 16 16 16 16 16 17 17 18 19 19 19 19 19
5 4 3 2 2 2 3 4 4 5 6 7 8 9 11 12 14 15 15 15 14 13 13 14 14 15 16 16 16 16 16 15 15 15 15 16 16 16 16 16 17 17 18 19 20 20 20 20 20
5 4 3 2 1 2 3 4 4 5 6 7 9 10 11 12 13 14 14 13 13 13 13 13 14 15 15 15 15 15 15 15 15 15 15 16 16 16 16 17 17 18 19 19 20 20 20 20 20
5 5 4 3 2 2 3 4 5 5 6 7 8 10 11 12 13 13 13 12 12 12 13 13 13 14 14 15 15 15 15 15 15 15 15 15 16 16 16 17 17 18 18 19 19 19 19 19 19
5 5 4 4 2 2 3 4 5 5 6 7 8 9 11 12 12 12 12 12 12 12 12 13 13 13 14 14 14 14 14 14 15 15 15 15 15 16 16 16 17 17 18 18 18 18 18 19 19
5 5 4 4 3 2 2 4 5 6 6 7 8 9 10 11 11 11 11 11 11 11 11 12 12 13 13 14 14 14 14 14 14 14 14 14 15 15 15 16 16 16 17 17 17 17 18 18 18
5 5 5 4 3 3 3 4 6 6 7 7 8 9 10 10 10 11 11 11 11 11 11 12 12 12 13 13 13 13 14 14 14 14 14 14 14 14 14 15 15 16 16 16 16 17 17 17 17